星链-4313 (STARLINK-4313 )

导读

STARLINK-4313是美国太空探索技术公司(SpaceX)星链互联网卫星星座中的一颗卫星,于2022年7月11日发射升空,属于星链计划的组网卫星。星链计划旨在通过近地轨道卫星群,为全球用户提供高速互联网接入服务,该卫星后续正常入轨,服务于星链星座的全球网络覆盖。

Basic Information
目录编号:
53064
目录名称:
STARLINK-4313
国际标识:
2022-077X
轨道中心:
EARTH
卫星名称:
星链-4313
卫星全名:
星链-4313 (STARLINK-4313 )
卫星状态:
在轨 (已飞行1523 天)
发射日期:
2022-07-11 UTC
国别 :
美国 (US)
星等 :
--
Orbit Information
数据来源 国际轨道数据
星历时间: 2026-09-11T08:00:04+0800
6小时前
查看轨道信息
半长轴: 6844.286km
偏心率: 0.0001237
轨道倾角: 97.284°
近地点辐角 102.379°
升交点赤经 69.826°
平近点角 223.879°
近地点: 465.302km
远地点: 466.996km
周期: 93.919分钟
每日圈数: 15.332417
Detailed Information
固有亮度:
5
最大亮度:
2.5
卫星平台:
Starlink v1.5
覆盖范围:
全球
运营商:
太空探索技术公司
运营商所在国:
美国
制造商(研发单位):
太空探索技术公司
制造商所在国:
美国
使用方式:
暂无
Satellite Introduction
星链(Starlink)计划是由太空探索技术公司(SpaceX)提出的一个巨型低轨卫星互联网星座项目,计划在2019年至2024年间在太空搭建由约1.2万颗卫星组成的“星链”网络,其中1584颗将部署在地球上空550千米处的近地轨道,并从2020年开始工作。该卫星仍在工作。
2D Orbit Map
3D Orbit Map
Orbit Altitude Analysis Chart
Orbit Inclination Analysis Chart
Orbit Comprehensive Analysis Chart
View Comprehensive Chart
Conjunction Data List
Event ID Objects TCA Miss Dist (km) Collision Risk Probability Collision Risk Index (CRI) Action
CDM_260912-164305-306406-003121
2026-09-12T
16:43:54+0000
0.353 km
远距离
3.978093E-4 高风险 0.87
CDM_260912-185705-306405-888721
2026-09-12T
18:57:59+0000
0.490 km
远距离
1.878158E-4 高风险 0.8
CDM_260912-233905-306405-888721
2026-09-12T
23:39:33+0000
1.332 km
极远距离
8.499224E-6 低风险 0.54
CDM_260912-222905-306405-357421
2026-09-12T
22:29:04+0000
1.551 km
极远距离
5.911428E-6 低风险 0.5
CDM_260912-203105-306405-888721
2026-09-12T
20:31:51+0000
1.759 km
极远距离
3.509943E-6 低风险 0.46
CDM_260912-220505-306405-888721
2026-09-12T
22:05:42+0000
1.773 km
极远距离
3.424139E-6 低风险 0.46
CDM_260912-053505-306406-878421
2026-09-12T
05:35:36+0000
2.211 km
极远距离
2.194381E-6 低风险 0.42
CDM_260911-085305-284305-306421
2026-09-11T
08:53:35+0000
2.272 km
极远距离
2.09545E-6 低风险 0.41
CDM_260912-234205-306405-407421
2026-09-12T
23:42:23+0000
2.316 km
极远距离
1.979693E-6 低风险 0.41
CDM_260912-231605-306405-357421
2026-09-12T
23:16:00+0000
2.402 km
极远距离
1.863917E-6 低风险 0.4
Miss Distance Evolution Trend with All Objects
Collision Probability Evolution Trend with All Objects